Flag for United Kingdom Weather past 2 weeks in Salisbury, England, United Kingdom

Now
48 °F

Partly sunny.


Feels Like: 45 °F
Forecast: 45 / 57 °F
Wind: 8 mph from West

Location: Boscombe Down

Current Time: May 28, 2015 at 11:31:24 PM

Latest Report: May 28, 2015 at 9:50 PM


Visibility: N/A

Pressure: 29.98 "Hg

Humidity: 71%

Dew point: 39 °F

Location of SalisburyLocation

Historic Weather in Salisbury — Graph

°F

Salisbury temperature yesterday

Maximum temperature yesterday: 64 °F (at 1:50 PM)
Minimum temperature yesterday: 43 °F (at 4:50 AM)
Average temperature yesterday: 54 °F

Past Weeks' High & Low Weather Summary

 TemperatureHumidityPressure
High68 °F (May 23, 4:50 PM)100% (May 14, 11:50 AM)30.36 "Hg (May 14, 11:50 AM)
Low37 °F (May 20, 1:50 AM)36% (May 21, 1:50 PM)29.62 "Hg (May 18, 11:50 AM)
Average53 °F77%30.10 "Hg
* Reported May 13 8:50 PM — May 28 8:50 PM, Salisbury, Weather by CustomWeather, © 2015

Note: Actual official high and low records may vary slightly from our data, if they occured in-between our weather recording intervals... More about our weather records

Advertising

Salisbury weather history for previous 24 hours

 ConditionsComfort  
Time TempWeatherWind HumidityBarometerVisibility
8:50 PM
Thu, May 28
50 °FCool.10 mph67%29.98 "HgN/A
7:50 PM54 °FPassing clouds.15 mph54%29.98 "HgN/A
6:50 PM55 °FRefreshingly cool.14 mph41%29.98 "HgN/A
5:50 PM57 °FPartly sunny.16 mph39%29.98 "HgN/A
4:50 PM59 °FPartly sunny.17 mph36%29.98 "HgN/A
3:50 PM61 °FPartly sunny.18 mph42%29.98 "HgN/A
2:50 PM59 °FPartly sunny.22 mph42%29.98 "HgN/A
1:50 PM59 °FBroken clouds.20 mph42%29.98 "HgN/A
12:50 PM59 °FScattered clouds.18 mph45%30.01 "HgN/A
11:50 AM59 °FScattered clouds.22 mph45%29.98 "HgN/A
10:50 AM57 °FScattered clouds.18 mph48%30.01 "HgN/A
9:50 AM57 °FScattered clouds.16 mph51%30.01 "HgN/A
8:50 AM54 °FPassing clouds.16 mph63%30.01 "HgN/A
7:50 AM54 °FPassing clouds.13 mph67%29.98 "HgN/A
6:50 AM52 °FCool.13 mph77%29.98 "HgN/A
5:50 AM50 °FCool.10 mph88%29.98 "HgN/A
4:50 AM50 °FPassing clouds.13 mph94%29.95 "HgN/A
3:50 AM52 °FPassing clouds.13 mph94%29.95 "HgN/A
2:50 AM52 °FPartly cloudy.14 mph88%29.98 "HgN/A
1:50 AM52 °FOvercast.14 mph77%29.98 "HgN/A
12:50 AM52 °FPassing clouds.13 mph77%30.01 "HgN/A
11:50 PM
Wed, May 27
52 °FPassing clouds.17 mph67%30.01 "HgN/A
Weather by CustomWeather, © 2015

See weather overviewHow to use our weather pages